ONEWEB-0020, 45133

Orbit data source: Space-Track

ONEWEB-0020, 45133 is a payload satellite owned by One Web (UK) in LEO that was launched on Thu, 06 Feb 2020 UTC via a SOYUZ-2-1B launch vehicle from the Tyuratam Missile And Space Complex (TTMTR). Payload-class satellites include a variety of spacecraft equipped with specific instruments for various scientific and technological missions. These include communications satellites like Starlink; space stations such as the ISS; scientific satellites like the Hubble; Earth observation satellites from companies like Planet Labs, Umbra, and HawkEye 360; GPS; miniature CubeSats for education and research; and military/defense satellites.

Loading next visibility...
Identifier
45133, 2020-008C
Orbit
LEO
Last TLE update
10 hours ago
Origin
Manufacturer
One Web
Mission
Operational Commercial Communications
Bus & Motor
ARROW, Unknown motor
Mass
148 kg wet, ~140 kg dry
Launch date (UTC)
2020-02-06 (5 years ago)
Launch vehicle
SOYUZ-2-1B
Launch site
Tyuratam Missile And Space Complex (TTMTR)
Object type
Payload
Rocket body
Debris
Shape & HBR
Trap Box + 2 Pan, 5 m
Radar Cross Section
2.957 m², Large (>1 m²)

Expand to show TLE details & history

TLE from 10 hours ago
0 ONEWEB-0020
1 45133U 20008C   25128.96232716  .00000513  00000-0  14339-2 0  9991
2 45133  87.8790 116.8531 0002186  92.0311 268.1067 13.10369922255407
Epoch: 2025-05-08T23:05Z
Definitive object data (Epoch: 2025-05-08T23:05:45.066Z)
Latitude
Longitude
-96.60997°
Altitude
1,224.671 km
Speed
7.242 km/s
True Right ascension
07h 47m 24s
True Declination
0° 00' 00"
Sunlit
Object was in daylight at TLE epoch
Visualization TLE readout
Latitude
-6.21066°
Longitude
83.53579°
Altitude
1,225.783 km
Speed
7.241 km/s
Apparent Right ascension
22h 23m 22s
Apparent Declination
-46° 23' 38"
Sunlit
Object is in daylight
Visualization observer readout
Local Sidereal Time
17:21:35
Azimuth
134.958° SE
Elevation
-19.371°
Doppler factor
1
Orbital elements
Apogee altitude
1,220.509 km
Perigee altitude
1,217.188 km
Semi-major axis
7,596.985 km
Eccentricity
0.0002186
Inclination
87.879°
RAAN
116.8531°
Arg. of periapsis
92.0311°
True anomaly
268.08166°
Mean anomaly
268.1067°
Eccentric anomaly
268.09418°
Mean motion
3.27779 °/min
BSTAR
0.0014339
Orbital period
109.83 mins
Loading maneuver chart data...
Loading SW <> Apogee altitude chart data...
Loading historical data...
Loading historical data...
Loading historical data...
Loading historical data...
Loading historical data...
Loading historical data...
Loading historical data...

ONEWEB-0020 Visibility forecast

Observer location: undefined°, undefined°

Span
Click to sort rows by Start time (UTC) header in descending order
Start Az.
Max El. time (UTC)
Max El. Az.
Max El.
End time (UTC)
End Az.
13 mins2025-05-09 10:41:18.430Z11.652° NNE2025-05-09 10:48:18.430Z88.892° E36.14°2025-05-09 10:54:18.430Z153.785° SSE
10 mins2025-05-09 12:33:18.430Z330.208° NNW2025-05-09 12:37:18.430Z287.925° WNW27.146°2025-05-09 12:43:18.430Z226.444° WSW
12 mins2025-05-09 23:02:18.430Z152.23° SSE2025-05-09 23:07:18.430Z87.907° E38.591°2025-05-09 23:14:18.430Z10.704° NNE
10 mins2025-05-10 00:53:18.430Z235.475° WSW2025-05-10 00:57:18.430Z276.352° WNW24.676°2025-05-10 01:03:18.430Z335.53° NNW
|